This is the latest recevied weather packets stored in our database for station/object KD2ZLA. If no packets are shown the sender has not sent any weather packets the latest 10 day(s).
| Time | Temp. | Humidity | Pressure | Rain* | Wind** | Luminosity | Snow |
|---|---|---|---|---|---|---|---|
| 1777726841 | 5.56° C | 86% | 1012.5 hPa | 0 mm | - | 93 W/m² | - |
| 1777726537 | 5.56° C | 86% | 1012.5 hPa | 0 mm | - | 144 W/m² | - |
| 1777726235 | 5.56° C | 87% | 1012.5 hPa | 0 mm | - | 139 W/m² | - |
| 1777725931 | 5.56° C | 87% | 1012.6 hPa | 0 mm | - | 164 W/m² | - |
| 1777725628 | 5° C | 87% | 1012.6 hPa | 0 mm | - | 85 W/m² | - |
| 1777725326 | 5° C | 87% | 1012.4 hPa | 0 mm | - | 69 W/m² | - |
| 1777725022 | 5° C | 88% | 1012.6 hPa | 0 mm | - | 77 W/m² | - |
| 1777724719 | 5° C | 88% | 1012.4 hPa | 0 mm | - | 74 W/m² | - |
| 1777724417 | 5° C | 88% | 1012.6 hPa | 0 mm | - | 75 W/m² | - |
| 1777724114 | 5° C | 89% | 1012.5 hPa | 0 mm | - | 64 W/m² | - |
| 1777723811 | 5° C | 89% | 1012.4 hPa | 0 mm | - | 54 W/m² | - |
| 1777723508 | 5° C | 89% | 1012.5 hPa | 0 mm | - | 71 W/m² | - |
| 1777723205 | 5° C | 89% | 1012.5 hPa | 0 mm | - | 67 W/m² | - |
| 1777722902 | 5° C | 89% | 1012.5 hPa | 0 mm | - | 56 W/m² | - |
| 1777722598 | 5° C | 89% | 1012.5 hPa | 0 mm | - | 60 W/m² | - |
| 1777722295 | 5° C | 89% | 1012.5 hPa | 0 mm | - | 62 W/m² | - |
| 1777721992 | 4.44° C | 89% | 1012.3 hPa | 0 mm | - | 53 W/m² | - |
| 1777721689 | 4.44° C | 90% | 1012.4 hPa | 0 mm | - | 48 W/m² | - |
| 1777721388 | 4.44° C | 90% | 1012.4 hPa | 0 mm | - | 50 W/m² | - |
| 1777721085 | 4.44° C | 90% | 1012.3 hPa | 0 mm | - | 49 W/m² | - |
| 1777720783 | 4.44° C | 90% | 1012.5 hPa | 0 mm | - | 55 W/m² | - |
| 1777720480 | 4.44° C | 90% | 1012.4 hPa | 0 mm | - | 42 W/m² | - |
| 1777720177 | 4.44° C | 90% | 1012.4 hPa | 0 mm | - | 28 W/m² | - |
| 1777719875 | 4.44° C | 90% | 1012.2 hPa | 0 mm | - | 39 W/m² | - |
| 1777719571 | 4.44° C | 91% | 1012.3 hPa | 0 mm | - | 34 W/m² | - |
* Rain latest hour (hover to see other rain measurements)
** Current wind speed in m/s (hover to see current wind gust speed)